Location: Tel Aviv
(32.0670°N, 34.7670°E)
Time: 03:46:42
(UTC+03:00)

Tiros 1 - Pass Details

Date: 19 January 2022
Orbit: 629 x 663 km, 48.4° (Epoch: 26 May)

Event Time Altitude Azimuth Distance (km) Brightness Sun altitude
Rises 06:42:12 0° 314° (NW) 2,956 9.9 -0.6°
Reaches altitude 10° 06:44:37 10° 320° (NW) 2,038 9.2 -0.1°
Maximum altitude 06:49:11 50° 35° (NE) 817 7.9 0.7°
Drops below altitude 10° 06:53:41 10° 111° (ESE) 2,011 12.2 1.6°
Sets 06:56:03 0° 117° (ESE) 2,912 14.4 2.1°
